Location: Newark
(7.0858°N, 171.3717°E)
Time: 02:31:15
(UTC+00:00)

Transit 2A - Pass Details

Date: 04 December 2020
Orbit: 598 x 960 km, 66.7° (Epoch: 20 January)

Event Time Altitude Azimuth Distance (km) Brightness Sun altitude
Rises 14:52:24 0° 338° (NNW) 2,957 - -51.4°
Reaches altitude 10° 14:54:44 10° 338° (NNW) 2,008 - -50.9°
Maximum altitude 14:59:12 82° 251° (WSW) 616 - -49.9°
Drops below altitude 10° 15:03:30 10° 163° (SSE) 1,931 - -48.9°
Sets 15:05:43 0° 162° (SSE) 2,833 - -48.4°
